Flag for Mexico Weather past 2 weeks in Cancún, Quintana Roo, Mexico

Now
82 °F

Passing clouds.


Feels Like: 87 °F
Forecast: 78 / 87 °F
Wind: 9 mph from Northwest

Location: Aerop. Internacional Merida - Yuc


UV Index: 7 (High)

Visibility: 7 mi


Pressure: 29.89 "Hg

Humidity: 70%

Dew point: 72 °F

Location of CancúnLocation

Historic Weather in Cancún

°F

Cancún temperature yesterday

Maximum temperature yesterday: 86 °F (at 11:46 AM)
Minimum temperature yesterday: 72 °F (at 12:54 AM)
Average temperature yesterday: 78 °F

Past Weeks' High & Low Weather Summary

 TemperatureHumidityPressure
High104 °F (Apr 7, 3:50 PM)100% (Apr 8, 5:50 AM)30.23 "Hg (Apr 8, 5:50 AM)
Low55 °F (Apr 10, 6:52 AM)18% (Apr 5, 2:52 PM)29.63 "Hg (Apr 7, 4:50 PM)
Average82 °F57%29.91 "Hg
* Reported Apr 2 6:43 PM — Apr 17 7:48 PM, Cancún, Weather by CustomWeather, © 2014

Note: Actual official high and low records may vary slightly from our data, if they occured in-between our weather recording intervals... More about our weather records

Advertising

Historic Weather Conditions — Data for Previous 24 hours

 ConditionsComfort  
Time TempWeatherWind HumidityBarometerVisibility
7:48 PM
Apr 17
84 °FPartly sunny.14 mph66%29.86 "Hg7 mi
5:48 PM95 °FScattered clouds.12 mph28%29.82 "Hg7 mi
4:49 PM93 °FPartly sunny.14 mph32%29.82 "Hg7 mi
3:48 PM93 °FPartly sunny.14 mph32%29.83 "Hg7 mi
2:47 PM95 °FPartly sunny.17 mph28%29.85 "Hg7 mi
1:45 PM95 °FPartly sunny.22 mph30%29.87 "Hg7 mi
11:46 AM90 °FPartly sunny.15 mph41%29.94 "Hg7 mi
10:43 AM88 °FPartly sunny.15 mph46%29.97 "Hg7 mi
9:47 AM84 °FPartly sunny.20 mph58%29.92 "Hg7 mi
9:05 AM81 °FPartly sunny.16 mph70%29.96 "Hg7 mi
8:46 AM81 °FPartly sunny.14 mph74%29.96 "Hg6 mi
7:47 AM75 °FPassing clouds.10 mph83%29.95 "Hg5 mi
6:48 AM73 °FPassing clouds.9 mph89%29.92 "Hg5 mi
5:44 AM75 °FPassing clouds.7 mph83%29.92 "Hg6 mi
3:47 AM75 °FPassing clouds.10 mph83%29.92 "Hg7 mi
2:45 AM75 °FPassing clouds.8 mph83%29.92 "Hg7 mi
1:45 AM77 °FPassing clouds.9 mph79%29.93 "Hg7 mi
12:45 AM77 °FPassing clouds.7 mph79%29.94 "Hg7 mi
11:41 PM
Apr 16
79 °FPassing clouds.8 mph74%29.94 "Hg7 mi
10:40 PM79 °FPartly cloudy.8 mph79%29.94 "Hg7 mi
9:47 PM79 °FPartly cloudy.6 mph74%29.97 "Hg7 mi
Weather by CustomWeather, © 2014

See weather overview